Portada
METAR-TAF:

METAR-TAF

Aeroports :

Casino, Austràlia

latitud: 28-52-39S, longitud: 153-03-07E, altitud: 21 m

Observació

L'informe es va fer fa 10 minuts, a les 06:33 UTC
Vent 15 kt del Sud amb ràfegues de 27 kt
Temperatura 26°C
Humitat 42%
Pressió 1016 hPa

METAR: YCAS 230633Z AUTO 17015G27KT //// // ////// 26/12 Q1016

Hora: 17:43 (06:43 UTC)


TAF: manca

Observacions i pronòstics meteorològics de més de 4000 aeroports (METAR i TAF).

Les estacions disponibles són els punts grocs i vermells al mapa.

Posi el ratolí al punt desitjat per veure el nom de l'estació.

Feu clic per veure les observacions i els pronòstics meteorològics.

Per canviar el mapa: feu clic els botons verds amb una creu de color negre per apropar; al botó verd amb un guió per allunyar la imatge; o en les fletxes verdes per a mapes adjacents.


METAR-TAF: